Flag for U.S.A. Weather past 2 weeks in Fort Bragg, California, U.S.A.

Now
36 °F

Clear.


Feels Like: 36 °F
Forecast: 42 / 60 °F
Wind: No wind

Location: Ukiah Municipal

Current Time: Mar 4, 2015 at 5:54:14 AM

Latest Report: Mar 4, 2015 at 4:56 AM


Visibility: 10 mi

Pressure: 30.07 "Hg

Humidity: 82%

Dew point: 31 °F

Location of Fort BraggLocation

Historic Weather in Fort Bragg — Graph

°F

Fort Bragg temperature yesterday

Maximum temperature yesterday: 66 °F (at 1:56 PM)
Minimum temperature yesterday: 35 °F (at 5:56 AM)
Average temperature yesterday: 49 °F

Past Weeks' High & Low Weather Summary

 TemperatureHumidityPressure
High75 °F (Feb 20, 2:56 PM)97% (Feb 17, 8:56 AM)30.38 "Hg (Feb 17, 8:56 AM)
Low30 °F (Feb 24, 6:56 AM)10% (Feb 23, 12:56 PM)29.72 "Hg (Feb 28, 3:56 AM)
Average51 °F65%30.02 "Hg
* Reported Feb 17 4:56 AM — Mar 4 4:56 AM, Fort Bragg, Weather by CustomWeather, © 2015

Note: Actual official high and low records may vary slightly from our data, if they occured in-between our weather recording intervals... More about our weather records

Advertising

Fort Bragg weather history for previous 24 hours

 ConditionsComfort  
Time TempWeatherWind HumidityBarometerVisibility
4:56 AM
Wed, Mar 4
36 °FClear.No wind82%30.07 "Hg10 mi
3:56 AM35 °FClear.No wind82%30.05 "Hg10 mi
2:56 AM37 °FClear.No wind82%30.04 "Hg10 mi
1:56 AM38 °FClear.No wind79%30.05 "Hg10 mi
12:56 AM41 °FClear.No wind74%30.04 "Hg10 mi
11:56 PM
Tue, Mar 3
43 °FClear.No wind68%30.04 "Hg10 mi
10:56 PM40 °FClear.No wind80%30.03 "Hg10 mi
9:56 PM45 °FClear.No wind65%30.03 "Hg10 mi
8:56 PM48 °FClear.5 mph59%30.01 "Hg10 mi
7:56 PM50 °FClear.No wind52%30.00 "Hg10 mi
6:56 PM54 °FClear.3 mph49%29.98 "Hg10 mi
5:56 PM58 °FSunny.3 mph41%29.96 "Hg10 mi
4:56 PM62 °FSunny.9 mph38%29.93 "Hg10 mi
3:56 PM66 °FSunny.3 mph34%29.93 "Hg10 mi
2:56 PM65 °FSunny.3 mph34%29.95 "Hg10 mi
1:56 PM66 °FSunny.6 mph31%29.97 "Hg10 mi
12:56 PM63 °FSunny.3 mph33%29.99 "Hg10 mi
11:56 AM60 °FSunny.3 mph46%30.02 "Hg10 mi
10:56 AM54 °FSunny.No wind59%30.04 "Hg10 mi
9:56 AM49 °FSunny.No wind69%30.06 "Hg10 mi
8:56 AM44 °FSunny.No wind79%30.06 "Hg10 mi
7:56 AM39 °FSunny.No wind86%30.06 "Hg10 mi
6:56 AM36 °FSunny.No wind85%30.04 "Hg10 mi
5:56 AM35 °FClear.No wind88%30.03 "Hg10 mi
Weather by CustomWeather, © 2015

See weather overviewHow to use our weather pages